Location: Newark
(45.2621°N, 19.8603°E)
Time: 19:39:05
(UTC+00:00)

ISS - Visible Passes

Search period start: 13 November 2019 00:00
Search period end: 23 November 2019 00:00
Orbit: 412 x 421 km, 51.6° (Epoch: 14 November)

Date Brightness Start Highest point End Pass type
(mag) Time Alt. Az. Time Alt. Az. Time Alt. Az.
13 Nov -1.4 03:15:35 18° SSE 03:15:35 18° SSE 03:16:40 10° SE visible
20 Nov -0.9 17:28:44 10° SSW 17:29:00 12° SSW 17:29:00 12° SSW visible
21 Nov -1.8 16:41:03 10° S 16:42:53 17° SE 16:42:53 17° SE visible
22 Nov -1.4 15:54:22 10° SE 15:55:08 11° SE 15:55:54 10° ESE visible
22 Nov -1.8 17:27:59 10° SW 17:29:36 26° SW 17:29:36 26° SW visible
